Regional Weather Roundup
Issued by NWS

Home | Current Version | Previous Version | Text Only | Print | Product List | Glossary Off
Versions: 1 2 3 4 5 6 7 8 9 10 11 12 13 14 15 16 17 18 19 20 21 22 23 24 25 26 27 28 29 30 31 32 33 34 35 36 37 38 39 40 41 42 43 44 45 46 47 48 49 50

000
ASUS43 KMKX 190510
RWRWI

WISCONSIN REGIONAL WEATHER ROUNDUP
NATIONAL WEATHER SERVICE MILWAUKEE/SULLIVAN WI
1100 PM CST SAT NOV 18 2017

NOTE: "FAIR" INDICATES FEW OR NO CLOUDS BELOW 12,000 FEET WITH NO
SIGNIFICANT WEATHER AND/OR OBSTRUCTIONS TO VISIBILITY.

WIZ001-002-006>008-014>016-023>028-190600-
NORTHWEST WISCONSIN

CITY           SKY/WX    TMP DP  RH WIND       PRES   REMARKS
SUPERIOR ARPT  CLOUDY    20  10  64 W14       29.98S WCI   7
ASHLAND        FLURRIES  22  13  68 W14       29.93R WCI   9
HAYWARD        CLOUDY    20   9  62 W8G18     29.93R WCI  10
SIREN          CLOUDY    20  12  71 NW12      30.00R WCI   8
CUMBERLAND     CLOUDY    21  12  68 NW14G21   29.94F WCI   8
RICE LAKE      CLOUDY    21  13  70 NW8       29.97R WCI  11
CHETEK         CLOUDY    21  13  71 NW9G16    29.95R WCI  11
LADYSMITH      CLOUDY    24  15  67 W12       29.93R WCI  13
EAU CLAIRE     CLOUDY    24  14  65 NW10      29.95R WCI  14
MENOMONIE      MOCLDY    25  15  66 W13G22    29.97R WCI  13
NEW RICHMOND   CLOUDY    20  11  68 NW12      30.01R WCI   8
OSCEOLA        CLOUDY    20  12  71 W15       30.06R WCI   6
$$

WIZ003>005-009-010-017-018-190600-
NORTH CENTRAL WISCONSIN

CITY           SKY/WX    TMP DP  RH WIND       PRES   REMARKS
MANITOWISH WTR FLURRIES  20  19  94 W8        29.82R WCI  11
ARBOR VITAE    FLURRIES  23  19  84 NW10      29.82R WCI  12
WOODRUFF       FLURRIES  23  19  84 NW10      29.82R WCI  12
RHINELANDER    CLOUDY   N/A N/A N/A NW10G20   29.81R
EAGLE RIVER    FLURRIES  24  18  80 NW14G20   29.78S WCI  11
LAND O LAKES   FLURRIES  24  21  87 W7        29.79S WCI  16
PHILLIPS       CLOUDY    22  13  71 NW8       29.86R WCI  12
TOMAHAWK       CLOUDY    23  15  71 NW8G16    29.84R WCI  14
MEDFORD        CLOUDY    23  14  68 NW13      29.84S WCI  12
MERRILL        CLOUDY    25  17  72 NW10      29.84R WCI  15
$$

WIZ029-030-035-036-043>047-190600-
CENTRAL WISCONSIN

CITY           SKY/WX    TMP DP  RH WIND       PRES   REMARKS
WAUSAU         CLOUDY    26  17  68 NW20G28   29.83R WCI  12
MOSINEE        NOT AVBL
MARSHFIELD     CLOUDY    26  16  65 NW14G22   29.85R WCI  14
STEVENS POINT  CLOUDY    26  17  67 NW12G20   29.85R WCI  16
WAUPACA        CLOUDY    32  21  62 NW12G17   29.84R WCI  23
WAUTOMA        CLOUDY    31  21  66 NW17G23   29.85R WCI  19
WISC RAPIDS    CLOUDY    29  18  63 N15G21    29.87R WCI  18
CAMP DOUGLAS   CLOUDY   N/A N/A N/A NW12      29.91R
$$

WIZ011>013-019>022-031-037>040-048>050-190600-
NORTHEAST WISCONSIN

CITY           SKY/WX    TMP DP  RH WIND       PRES   REMARKS
ANTIGO         CLOUDY    24  19  81 NW18G25   29.80R WCI  11
SHAWANO        CLOUDY    33  25  72 NW12G20   29.80R WCI  24
OCONTO         CLOUDY    32  24  72 NW14      29.78R WCI  22
STURGEON BAY   CLOUDY    32  25  75 NW18G26   29.75R WCI  20
GREEN BAY      CLOUDY    33  27  78 NW16      29.79R WCI  23
MANITOWOC      CLOUDY    33  25  72 NW13      29.78R WCI  24
APPLETON       CLOUDY    32  21  64 NW14G23   29.79R WCI  22
CLINTONVILLE   CLOUDY    30  21  69 NW10      29.82R WCI  21
OSHKOSH        CLOUDY    33  23  66 NW20G25   29.80R WCI  21
$$

WIZ032>034-041-042-053>061-190600-
SOUTHWEST WISCONSIN

CITY           SKY/WX    TMP DP  RH WIND       PRES   REMARKS
LA CROSSE      CLOUDY    29  17  61 NW15G24   29.95R WCI  18
SPARTA         CLOUDY    28  18  66 W12G23    29.94R WCI  18
VIROQUA        CLOUDY    28  22  76 NW13G18   29.90S WCI  18
BOSCOBEL       MOCLDY    31  20  63 W5        29.94R WCI  26
PRAIRIE DU CHI CLEAR     29  17  62 NW10G18   29.96S WCI  20
PLATTEVILLE    PTCLDY    30  24  78 W12G20    29.92R WCI  20
$$

WIZ056-057-062-063-064-067-068-190600-
SOUTH CENTRAL WISCONSIN

CITY           SKY/WX    TMP DP  RH WIND       PRES   REMARKS
REEDSBURG      CLOUDY    30  19  65 NW10      29.88R WCI  21
BARABOO/DELLS  CLOUDY    30  19  64 NW8       29.87R WCI  22
LONE ROCK      CLEAR     30  20  66 NW14G25   29.91R WCI  19
MINERAL POINT  CLEAR     30  23  74 NW9       29.89R WCI  22
MADISON        MOCLDY    31  20  63 NW16G29   29.86R WCI  20
MIDDLETON      CLOUDY    33  25  71 NW16      29.87R WCI  23
WATERTOWN      CLOUDY    33  25  74 NW14      29.83R WCI  23
MONROE         CLOUDY    32  25  74 NW16G28   29.86R WCI  21
JANESVILLE     CLOUDY    34  28  80 NW13      29.85S WCI  25
$$

WIZ051-052-058>065-066-070>072-190600-
SOUTHEAST WISCONSIN

CITY           SKY/WX    TMP DP  RH WIND       PRES   REMARKS
MILWAUKEE      CLOUDY    37  26  64 NW17G33   29.80R WCI  27
WAUKESHA       CLOUDY    32  23  69 NW16G26   29.82R WCI  21
MILWAUKEE/TIMM CLOUDY    34  23  64 NW14G22   29.82R WCI  24
RACINE         CLOUDY    37  26  64 NW15G28   29.82R WCI  28
BURLINGTON     CLOUDY    37  31  81 NW18G24   29.82R WCI  26
KENOSHA        CLOUDY    37  27  67 NW18G26   29.81R WCI  27
FOND DU LAC    CLOUDY    34  22  61 NW18G28   29.81R WCI  23
SHEBOYGAN      CLOUDY    34  27  75 NW15G22   29.78R WCI  24
WEST BEND      CLOUDY    32  27  80 NW15G21   29.80R WCI  22
JUNEAU         CLOUDY    32  24  71 NW10G23   29.84R WCI  24
$$

LSZ147-162-190600-
LAKE SUPERIOR

STATION/POSITION TIME  TEMP    WIND        PRES    WAVE
                       AIR SEA DIR/SP/G            HT/PER
                 (UTC) (F)     (DEG/KT/KT) (MB)    (FT/S)
DEVILS ISLAND    0500   22     290/ 18/ 22 1014.5R
SAXON HARBOR     0440   26     300/ 20/ 24 1012.2R
$$

LMZ867-665-643>646-190600-
LAKE MICHIGAN

STATION/POSITION TIME  TEMP    WIND        PRES    WAVE
                       AIR SEA DIR/SP/G            HT/PER
                 (UTC) (F)     (DEG/KT/KT) (MB)    (FT/S)
N MID LAKE BUOY  0450   35 48  320/ 19/ 25 1006.5R   5/ 6
NORTHPORT PIER   0437   35     330/ 26/ 27 1006.4S
SHEBOYGAN LAKESH 0500   35     330/ 14/ 18 1009.2R
PORT WASHINGTON  0440   36     320/  9/ 14 1009.8R
MILWAUKEE LAKESH 0430   37     320/ 10/ 13   N/A
S MID LAKE BUOY  0350   40 49  340/ 23/ 29 1006.7R  10/ 8
KENOSHA   LAKESH 0500   37     320/ 17/ 23 1009.5
$$

TC  - TEMPERATURE IN CELSIUS
VSB - VISIBILITY IN STATUTE MILES
WCI - WIND CHILL INDEX
HX  - HEAT INDEX





USA.gov is the U.S. government's official web portal to all federal, state and local government web resources and services.